Regional Weather Roundup
Issued by NWS

Home | Current Version | Previous Version | Graphics & Text | Print | Product List | Glossary On
Versions: 1 2 3 4 5 6 7 8 9 10 11 12 13 14 15 16 17 18 19 20 21 22 23 24 25 26 27 28 29 30 31 32 33 34 35 36 37 38 39 40 41 42 43 44 45 46 47 48 49 50
000
ASUS43 KBIS 230502
RWRND

NORTH DAKOTA REGIONAL WEATHER ROUNDUP
NATIONAL WEATHER SERVICE BISMARCK ND
1100 PM CST WED FEB 22 2017

NOTE: "FAIR" INDICATES FEW OR NO CLOUDS BELOW 12,000 FEET WITH NO
SIGNIFICANT WEATHER AND/OR OBSTRUCTIONS TO VISIBILITY.


NDZ001>003-009>011-017-230600-
NORTHWEST NORTH DAKOTA

CITY           SKY/WX    TMP DP  RH WIND       PRES   REMARKS
WILLISTON      CLOUDY    29  25  85 CALM      30.01S
MINOT          CLOUDY    32  27  81 W9        29.97S
MINOT AFB      CLOUDY    31  28  89 NW8       29.96S
$$

NDZ018>021-031>035-040>046-230600-
SOUTHWEST NORTH DAKOTA

CITY           SKY/WX    TMP DP  RH WIND       PRES   REMARKS
BISMARCK       FAIR      31  27  85 N3        30.00R
DICKINSON      CLOUDY    27  23  85 N3        29.95S
GARRISON         N/A     26  23  88 NW8       29.97S WCI  18
HETTINGER ARPT LGT SNOW  27  25  92 NE8       29.95F FOG     WCI  19
$$

NDZ004>008-012>016-024-026-027-054-230600-
NORTHEAST NORTH DAKOTA

CITY           SKY/WX    TMP DP  RH WIND       PRES   REMARKS
GRAND FORKS    PTCLDY    29  22  75 NW10      29.96R WCI  20
GRND FRKS AFB  PTCLDY    29  25  84 N10       29.97R WCI  20
DEVILS LAKE    FAIR      29  25  85 NW13      29.97R WCI  19
$$

NDZ022-023-025-028>030-036>039-047>053-230600-
SOUTHEAST NORTH DAKOTA

CITY           SKY/WX    TMP DP  RH WIND       PRES   REMARKS
FARGO          CLEAR     31  28  89 NW9       29.94R
JAMESTOWN      FAIR      28  25  88 NW9       29.95S WCI  19
$$





USA.gov is the U.S. government's official web portal to all federal, state and local government web resources and services.